SQ9NFI-4 Weather Reports


time (UTC)temp
C
wind
direction
speed
KPH
gust
KPH
rain 1hr
cm
rain 24hr
cm
rain mn
cm
humidity
%
barometer
mb
20260903123403 23 334 6.4 9.7 0.00 0.00 0.00 54 1019.0
20260903122903 23 330 3.2 3.2 0.00 0.00 0.00 57 1019.0
20260903122403 23 308 9.7 12.9 0.00 0.00 0.00 59 1019.0
20260903121903 22 318 6.4 8.0 0.00 0.00 0.00 60 1019.0
20260903121403 22 333 3.2 3.2 0.00 0.00 0.00 61 1019.3
20260903120903 22 324 1.6 1.6 0.00 0.00 0.00 58 1019.3
20260903120403 22 304 4.8 4.8 0.00 0.00 0.00 58 1019.3
20260903115903 22 326 1.6 1.6 0.00 0.00 0.00 59 1019.3
20260903115403 22 325 11.3 16.1 0.00 0.00 0.00 59 1019.3
20260903114903 23 315 11.3 11.3 0.00 0.00 0.00 57 1019.3
20260903114403 23 19 6.4 6.4 0.00 0.00 0.00 57 1019.3
20260903113903 23 327 9.7 12.9 0.00 0.00 0.00 57 1019.3
20260903113403 22 321 4.8 8.0 0.00 0.00 0.00 60 1019.3
20260903112903 22 323 3.2 3.2 0.00 0.00 0.00 57 1019.3
20260903112403 23 321 0.0 4.8 0.00 0.00 0.00 58 1019.6
20260903111903 22 320 9.7 14.5 0.00 0.00 0.00 58 1019.6
20260903111402 23 337 3.2 4.8 0.00 0.00 0.00 59 1019.6
20260903110903 22 320 1.6 3.2 0.00 0.00 0.00 62 1019.6
20260903110403 22 333 4.8 6.4 0.00 0.00 0.00 65 1019.6
20260903105903 22 314 3.2 3.2 0.00 0.00 0.00 63 1019.6
20260903105403 21 331 4.8 4.8 0.00 0.00 0.00 63 1019.6
20260903104903 21 331 4.8 9.7 0.00 0.00 0.00 63 1019.6
20260903104403 21 335 6.4 6.4 0.00 0.00 0.00 63 1019.6
20260903103903 21 320 6.4 14.5 0.00 0.00 0.00 63 1019.6
20260903103403 22 330 6.4 11.3 0.00 0.00 0.00 62 1019.6
20260903102903 22 320 4.8 9.7 0.00 0.00 0.00 63 1019.6
20260903102403 23 338 6.4 6.4 0.00 0.00 0.00 58 1020.0
20260903101903 22 302 3.2 4.8 0.00 0.00 0.00 58 1020.0
20260903101403 22 233 4.8 6.4 0.00 0.00 0.00 56 1020.0
20260903100903 23 226 6.4 11.3 0.00 0.00 0.00 56 1020.0
20260903100403 23 305 3.2 3.2 0.00 0.00 0.00 56 1020.0
20260903095903 23 329 17.7 17.7 0.00 0.00 0.00 56 1020.0
20260903095403 23 315 11.3 14.5 0.00 0.00 0.00 56 1020.0
20260903094903 23 318 4.8 9.7 0.00 0.00 0.00 55 1020.0
20260903094403 23 323 4.8 6.4 0.00 0.00 0.00 55 1020.0
20260903093902 23 307 9.7 12.9 0.00 0.00 0.00 55 1020.0
20260903093403 24 270 3.2 9.7 0.00 0.00 0.00 54 1020.0
20260903092903 24 297 8.0 8.0 0.00 0.00 0.00 54 1020.0
20260903092403 23 314 11.3 14.5 0.00 0.00 0.00 54 1020.0
20260903091903 24 273 8.0 8.0 0.00 0.00 0.00 53 1020.0
20260903091403 24 250 8.0 8.0 0.00 0.00 0.00 52 1020.0
20260903090902 23 211 4.8 9.7 0.00 0.00 0.00 58 1020.0
20260903090403 23 275 9.7 11.3 0.00 0.00 0.00 55 1020.0
20260903085902 23 330 6.4 6.4 0.00 0.00 0.00 58 1020.3
20260903085403 23 311 6.4 8.0 0.00 0.00 0.00 56 1020.3
20260903084903 23 317 6.4 9.7 0.00 0.00 0.00 57 1020.0
20260903084403 22 133 9.7 12.9 0.00 0.00 0.00 57 1020.0
20260903083903 23 295 4.8 4.8 0.00 0.00 0.00 57 1020.0
20260903083402 22 204 6.4 9.7 0.00 0.00 0.00 60 1020.0
20260903082902 22 285 1.6 1.6 0.00 0.00 0.00 59 1020.0
20260903082402 22 344 1.6 8.0 0.00 0.00 0.00 59 1020.3
20260903081902 22 293 6.4 12.9 0.00 0.00 0.00 60 1020.3
20260903081402 22 322 9.7 12.9 0.00 0.00 0.00 57 1020.3
20260903080902 22 334 3.2 3.2 0.00 0.00 0.00 60 1020.3
20260903080403 22 326 3.2 8.0 0.00 0.00 0.00 63 1020.3
20260903075902 21 339 4.8 9.7 0.00 0.00 0.00 59 1020.3
20260903075403 22 297 1.6 3.2 0.00 0.00 0.00 64 1020.3
20260903074903 22 325 1.6 4.8 0.00 0.00 0.00 62 1020.0
20260903074402 22 322 1.6 3.2 0.00 0.00 0.00 61 1020.0
20260903073903 22 323 1.6 1.6 0.00 0.00 0.00 59 1020.0
20260903073403 21 341 1.6 1.6 0.00 0.00 0.00 61 1020.0
20260903072903 22 326 0.0 1.6 0.00 0.00 0.00 62 1020.0
20260903072403 21 275 3.2 4.8 0.00 0.00 0.00 63 1020.0
20260903071903 21 318 1.6 1.6 0.00 0.00 0.00 70 1020.0
20260903071403 21 337 1.6 1.6 0.00 0.00 0.00 65 1020.0
20260903070903 20 336 0.0 1.6 0.00 0.00 0.00 67 1020.0
20260903070403 20 292 8.0 9.7 0.00 0.00 0.00 73 1020.0
20260903065903 20 277 3.2 4.8 0.00 0.00 0.00 72 1020.0
20260903065402 19 286 3.2 3.2 0.00 0.00 0.00 75 1020.0
20260903064902 19 190 4.8 6.4 0.00 0.00 0.00 76 1020.0
20260903064402 18 222 4.8 4.8 0.00 0.00 0.00 80 1020.0
20260903063902 18 244 8.0 11.3 0.00 0.00 0.00 79 1020.0
20260903063402 17 270 4.8 8.0 0.00 0.00 0.00 82 1020.0
20260903062902 17 223 6.4 6.4 0.00 0.00 0.00 84 1020.0
20260903062402 18 290 1.6 3.2 0.00 0.00 0.00 83 1020.0
20260903061902 18 333 0.0 0.0 0.00 0.00 0.00 84 1020.0
20260903061402 16 328 0.0 0.0 0.00 0.00 0.00 91 1020.0
20260903060902 15 328 0.0 0.0 0.00 0.00 0.00 96 1020.0
20260903060402 15 327 0.0 0.0 0.00 0.00 0.00 99 1020.0
20260903055902 14 329 0.0 0.0 0.00 0.00 0.00 99 1020.0
20260903055402 14 328 0.0 0.0 0.00 0.00 0.00 99 1020.0
20260903054902 13 329 0.0 0.0 0.00 0.00 0.00 99 1020.0
20260903054402 13 338 1.6 1.6 0.00 0.00 0.00 99 1020.0
20260903053903 13 325 0.0 0.0 0.00 0.00 0.00 99 1020.0
20260903053402 13 325 0.0 0.0 0.00 0.00 0.00 99 1020.0
20260903052902 13 324 0.0 0.0 0.00 0.00 0.00 99 1020.0
20260903052402 13 324 0.0 0.0 0.00 0.00 0.00 99 1020.0
20260903051902 13 324 0.0 0.0 0.00 0.00 0.00 99 1020.0
20260903051402 13 324 0.0 0.0 0.00 0.00 0.00 99 1020.0
20260903050902 13 326 0.0 0.0 0.00 0.00 0.00 99 1020.0
20260903050402 13 330 0.0 0.0 0.00 0.00 0.00 99 1020.0
20260903045902 13 331 0.0 0.0 0.00 0.00 0.00 99 1020.0
20260903045402 13 331 0.0 0.0 0.00 0.00 0.00 99 1020.0
20260903044902 12 331 0.0 0.0 0.00 0.00 0.00 99 1020.0
20260903044402 12 331 0.0 0.0 0.00 0.00 0.00 99 1020.0
20260903043902 12 331 0.0 0.0 0.00 0.00 0.00 99 1020.0
20260903043402 12 331 0.0 0.0 0.00 0.00 0.00 99 1020.0
20260903042902 12 331 0.0 0.0 0.00 0.00 0.00 99 1020.0
20260903042402 13 331 0.0 0.0 0.00 0.00 0.00 99 1020.0
20260903041902 13 331 0.0 0.0 0.13 0.00 0.00 99 1020.0
20260903041402 13 331 0.0 0.0 0.13 0.00 0.00 99 1020.0
20260903040902 13 331 0.0 0.0 0.00 0.00 0.00 99 1020.0
20260903040402 13 324 0.0 0.0 0.00 0.00 0.00 99 1020.0
20260903035902 13 326 0.0 0.0 0.00 0.00 0.00 99 1020.0
20260903035402 13 325 0.0 0.0 0.00 0.00 0.00 99 1020.0
20260903034902 13 324 1.6 1.6 0.00 0.00 0.00 99 1020.0
20260903034402 13 334 0.0 0.0 0.00 0.00 0.00 99 1020.0
20260903033902 13 334 0.0 0.0 0.00 0.00 0.00 99 1020.0
20260903033402 13 334 0.0 1.6 0.00 0.00 0.00 99 1020.0
20260903032902 13 329 0.0 0.0 0.00 0.00 0.00 99 1020.0
20260903032402 13 323 0.0 1.6 0.00 0.00 0.00 99 1020.0
20260903031902 13 308 1.6 1.6 0.00 0.00 0.00 99 1020.0
20260903031402 13 336 0.0 0.0 0.00 0.00 0.00 99 1020.0
20260903030902 13 341 0.0 1.6 0.00 0.00 0.00 99 1020.0
20260903030402 13 341 1.6 1.6 0.00 0.00 0.00 99 1020.0
20260903025902 14 327 3.2 6.4 0.00 0.00 0.00 99 1020.0
20260903025402 14 341 1.6 3.2 0.00 0.00 0.00 99 1020.0
20260903024902 14 331 1.6 1.6 0.00 0.00 0.00 99 1020.3
20260903024402 14 327 1.6 1.6 0.00 0.00 0.00 98 1020.3
20260903023902 14 343 3.2 3.2 0.00 0.00 0.00 98 1020.3
20260903023402 14 352 3.2 4.8 0.00 0.00 0.00 99 1020.0
20260903022902 14 344 1.6 3.2 0.00 0.00 0.00 99 1020.0
20260903022402 13 348 4.8 9.7 0.00 0.00 0.00 99 1020.0
20260903021902 13 298 17.7 33.8 0.00 0.00 0.00 99 1020.0
20260903021402 11 322 6.4 9.7 0.00 0.00 0.00 99 1020.0
20260903020902 11 329 4.8 4.8 0.00 0.00 0.00 99 1020.0
20260903020402 11 327 0.0 0.0 0.00 0.00 0.00 99 1020.0
20260903015902 11 327 0.0 0.0 0.00 0.00 0.00 99 1020.0
20260903015402 11 328 0.0 0.0 0.00 0.00 0.00 99 1020.0
20260903014902 11 328 0.0 0.0 0.00 0.00 0.00 99 1020.0
20260903014402 11 328 0.0 0.0 0.00 0.00 0.00 99 1020.0
20260903013902 11 327 0.0 0.0 0.00 0.00 0.00 99 1020.0
20260903013402 11 328 0.0 0.0 0.00 0.00 0.00 99 1020.0
20260903012902 11 328 0.0 0.0 0.00 0.00 0.00 99 1020.0
20260903012402 11 328 0.0 0.0 0.00 0.00 0.00 99 1020.0
20260903011902 11 328 0.0 0.0 0.00 0.00 0.00 99 1020.0
20260903011402 11 328 0.0 0.0 0.00 0.00 0.00 99 1020.0
20260903010902 11 325 0.0 0.0 0.00 0.00 0.00 99 1020.0
20260903010402 11 325 0.0 0.0 0.00 0.00 0.00 99 1020.0
20260903005902 11 325 0.0 0.0 0.00 0.00 0.00 99 1020.0
20260903005402 11 325 0.0 0.0 0.00 0.00 0.00 99 1020.0
20260903004902 11 325 0.0 0.0 0.00 0.00 0.00 99 1020.0
20260903004402 11 325 0.0 0.0 0.00 0.00 0.00 99 1020.0
20260903003902 11 325 0.0 0.0 0.00 0.00 0.00 99 1020.0
20260903003402 11 324 0.0 0.0 0.00 0.00 0.00 99 1020.0
20260903002902 11 325 0.0 0.0 0.00 0.00 0.00 99 1020.0
20260903002402 11 325 0.0 0.0 0.00 0.00 0.00 99 1020.0
20260903001902 11 325 0.0 0.0 0.00 0.00 0.00 99 1020.0
20260903001402 11 325 0.0 0.0 0.00 0.00 0.00 99 1020.0
20260903000902 12 324 0.0 0.0 0.00 0.00 0.00 99 1020.0
20260903000402 12 324 0.0 0.0 0.00 0.00 0.00 99 1020.0
20260902235902 11 325 0.0 0.0 0.00 0.00 0.00 99 1020.0
20260902235402 12 325 0.0 0.0 0.00 0.00 0.00 99 1020.0
20260902234902 12 324 0.0 0.0 0.00 0.00 0.00 99 1020.0
20260902234402 12 323 0.0 0.0 0.00 0.00 0.00 99 1020.0
20260902233902 12 324 0.0 0.0 0.00 0.00 0.00 99 1020.0
20260902233402 12 324 0.0 0.0 0.00 0.00 0.00 99 1020.0
20260902232902 12 324 0.0 0.0 0.00 0.00 0.00 99 1020.0
20260902232402 12 324 0.0 0.0 0.00 0.00 0.00 99 1020.3
20260902231902 11 321 0.0 0.0 0.00 0.00 0.00 99 1020.3
20260902231402 11 313 0.0 0.0 0.00 0.00 0.00 99 1020.3
20260902230902 11 333 0.0 0.0 0.00 0.00 0.00 99 1020.3
20260902230402 11 335 0.0 0.0 0.00 0.00 0.00 99 1020.3
20260902225902 11 332 0.0 0.0 0.00 0.00 0.00 99 1020.3
20260902225402 11 333 0.0 0.0 0.00 0.00 0.00 99 1020.3
20260902224902 11 332 0.0 0.0 0.00 0.00 0.00 99 1020.3
20260902224402 11 332 0.0 0.0 0.00 0.00 0.00 99 1020.3
20260902223902 11 333 0.0 0.0 0.00 0.00 0.00 99 1020.3
20260902223402 11 333 0.0 0.0 0.00 0.00 0.00 99 1020.3
20260902222902 11 332 0.0 0.0 0.00 0.00 0.00 99 1020.3
20260902222402 11 332 0.0 0.0 0.00 0.00 0.00 99 1020.3
20260902221902 11 332 0.0 0.0 0.00 0.00 0.00 99 1020.3
20260902221402 11 332 0.0 0.0 0.00 0.00 0.00 99 1020.0
20260902220902 11 332 0.0 0.0 0.00 0.00 0.00 99 1020.0
20260902220402 11 332 0.0 0.0 0.00 0.00 0.00 99 1020.0
20260902215902 11 332 0.0 0.0 0.00 0.00 0.00 99 1020.3
20260902215402 11 332 0.0 0.0 0.00 0.00 0.00 99 1020.3
20260902214902 11 332 0.0 0.0 0.00 0.00 0.00 99 1020.3
20260902214402 11 332 0.0 0.0 0.00 0.00 0.00 99 1020.3
20260902213902 11 332 0.0 0.0 0.00 0.00 0.00 99 1020.3
20260902213402 11 332 0.0 0.0 0.00 0.00 0.00 99 1020.3
20260902212902 11 332 0.0 0.0 0.00 0.00 0.00 99 1020.3
20260902212402 11 332 0.0 0.0 0.00 0.00 0.00 99 1020.3
20260902211902 11 332 0.0 0.0 0.00 0.00 0.00 99 1020.3
20260902211402 11 332 0.0 0.0 0.00 0.00 0.00 99 1020.3
20260902210902 11 332 0.0 0.0 0.00 0.00 0.00 99 1020.3
20260902210402 12 332 0.0 0.0 0.00 0.00 0.00 99 1020.3
20260902205902 12 332 0.0 0.0 0.00 0.00 0.00 99 1020.3
20260902205402 12 330 0.0 0.0 0.00 0.00 0.00 99 1020.3
20260902204902 12 330 0.0 0.0 0.00 0.00 0.00 99 1020.3
20260902204402 12 331 0.0 0.0 0.00 0.00 0.00 99 1020.3
20260902203902 12 330 0.0 0.0 0.00 0.00 0.00 99 1020.3
20260902203402 12 329 0.0 0.0 0.00 0.00 0.00 99 1020.0
20260902202902 12 330 0.0 0.0 0.00 0.00 0.00 99 1020.0
20260902202402 12 330 0.0 0.0 0.00 0.00 0.00 99 1020.0
20260902201902 12 330 0.0 0.0 0.00 0.00 0.00 99 1020.0
20260902201402 12 331 0.0 0.0 0.00 0.00 0.00 99 1020.0
20260902200902 12 331 0.0 0.0 0.00 0.00 0.00 99 1020.0
20260902200402 13 328 0.0 0.0 0.00 0.00 0.00 99 1020.0
20260902195902 13 330 0.0 0.0 0.00 0.00 0.00 99 1020.0
20260902195402 13 329 0.0 0.0 0.00 0.00 0.00 99 1020.0
20260902194902 13 327 0.0 0.0 0.00 0.00 0.00 99 1020.3
20260902194402 13 329 0.0 0.0 0.00 0.00 0.00 99 1020.3
20260902193902 13 327 0.0 0.0 0.00 0.00 0.00 99 1020.3
20260902193402 13 324 0.0 0.0 0.00 0.00 0.00 99 1020.3
20260902192902 13 324 0.0 0.0 0.00 0.00 0.00 99 1020.3
20260902192402 13 324 0.0 0.0 0.00 0.00 0.00 99 1020.3
20260902191902 13 321 0.0 0.0 0.00 0.00 0.00 99 1020.3
20260902191403 13 328 1.6 1.6 0.00 0.00 0.00 99 1020.3
20260902190902 14 329 0.0 0.0 0.00 0.00 0.00 99 1020.3
20260902190402 14 329 0.0 0.0 0.00 0.00 0.00 99 1020.3
20260902185902 14 329 0.0 0.0 0.00 0.00 0.00 99 1020.3
20260902185402 14 329 0.0 0.0 0.00 0.00 0.00 99 1020.3
20260902184902 14 329 0.0 0.0 0.00 0.00 0.00 99 1020.3
20260902184402 14 329 0.0 0.0 0.00 0.00 0.00 99 1020.3
20260902183902 14 328 0.0 0.0 0.00 0.00 0.00 99 1020.3
20260902183402 15 329 0.0 0.0 0.00 0.00 0.00 99 1020.3
20260902182902 15 325 0.0 0.0 0.00 0.00 0.00 98 1020.3
20260902182402 15 325 0.0 0.0 0.00 0.00 0.00 98 1020.0
20260902181902 15 325 0.0 0.0 0.00 0.00 0.00 97 1020.0
20260902181402 15 325 0.0 0.0 0.00 0.00 0.00 97 1020.0
20260902180902 15 325 0.0 0.0 0.00 0.00 0.00 97 1020.0
20260902180402 15 325 0.0 0.0 0.00 0.00 0.00 96 1020.0
20260902175902 16 325 0.0 0.0 0.00 0.00 0.00 96 1020.0
20260902175402 16 325 0.0 0.0 0.00 0.00 0.00 95 1020.0
20260902174902 16 324 0.0 0.0 0.00 0.00 0.00 95 1020.0
20260902174402 16 325 0.0 0.0 0.00 0.00 0.00 95 1020.0
20260902173902 16 324 0.0 0.0 0.00 0.00 0.00 94 1020.0
20260902173402 16 324 0.0 0.0 0.00 0.00 0.00 93 1020.0
20260902172902 17 324 0.0 0.0 0.00 0.00 0.00 92 1020.0
20260902172402 17 325 0.0 0.0 0.00 0.00 0.00 90 1020.0
20260902171902 17 324 0.0 0.0 0.00 0.00 0.00 89 1020.0
20260902171402 17 324 0.0 0.0 0.00 0.00 0.00 90 1020.0
20260902170902 18 324 0.0 0.0 0.00 0.00 0.00 87 1020.0
20260902170402 18 324 0.0 0.0 0.00 0.00 0.00 86 1020.0
20260902165902 18 325 0.0 0.0 0.00 0.00 0.00 83 1020.0
20260902165402 19 325 0.0 0.0 0.00 0.00 0.00 79 1020.0
20260902164902 19 323 0.0 0.0 0.00 0.00 0.00 81 1020.0
20260902164402 20 323 0.0 0.0 0.00 0.00 0.00 80 1020.0
20260902163902 20 323 0.0 0.0 0.00 0.00 0.00 80 1020.0
20260902163402 20 323 0.0 0.0 0.00 0.00 0.00 77 1020.0
20260902162902 21 323 0.0 0.0 0.00 0.00 0.00 76 1020.0
20260902162402 21 323 0.0 0.0 0.00 0.00 0.00 73 1020.0
20260902161902 21 323 0.0 0.0 0.00 0.00 0.00 69 1020.0
20260902161402 21 322 0.0 0.0 0.00 0.00 0.00 69 1020.0
20260902160902 21 316 1.6 1.6 0.00 0.00 0.00 67 1020.0
20260902160402 22 332 0.0 0.0 0.00 0.00 0.00 60 1020.0
20260902155902 22 327 1.6 1.6 0.00 0.00 0.00 57 1020.0
20260902155402 22 339 6.4 6.4 0.00 0.00 0.00 56 1020.0
20260902154902 23 333 6.4 9.7 0.00 0.00 0.00 56 1020.0
20260902154402 23 281 4.8 6.4 0.00 0.00 0.00 56 1020.0
20260902153902 24 347 1.6 4.8 0.00 0.00 0.00 53 1020.0
20260902153402 24 326 6.4 9.7 0.00 0.00 0.00 52 1020.0
20260902152902 24 347 4.8 4.8 0.00 0.00 0.00 53 1020.0
20260902152402 23 321 3.2 9.7 0.00 0.00 0.00 53 1020.0
20260902151902 24 320 6.4 6.4 0.00 0.00 0.00 54 1020.0
20260902151402 24 340 6.4 6.4 0.00 0.00 0.00 53 1020.0
20260902150902 24 312 4.8 11.3 0.00 0.00 0.00 52 1020.0
20260902150402 24 314 6.4 9.7 0.00 0.00 0.00 51 1020.0
20260902145902 24 298 9.7 9.7 0.00 0.00 0.00 52 1020.0
20260902145402 24 317 11.3 11.3 0.00 0.00 0.00 52 1020.0
20260902144902 23 307 6.4 11.3 0.00 0.00 0.00 55 1020.0
20260902144402 24 329 9.7 14.5 0.00 0.00 0.00 53 1020.0
20260902143902 24 354 4.8 4.8 0.00 0.00 0.00 52 1020.0
20260902143402 24 330 4.8 9.7 0.00 0.00 0.00 56 1020.0
20260902142902 24 309 11.3 16.1 0.00 0.00 0.00 52 1020.0
20260902142402 24 319 3.2 4.8 0.00 0.00 0.00 53 1020.0
20260902141902 24 312 4.8 6.4 0.00 0.00 0.00 53 1020.0
20260902141402 23 323 3.2 4.8 0.00 0.00 0.00 57 1020.0
20260902140902 23 328 8.0 9.7 0.00 0.00 0.00 55 1020.0
20260902140402 23 339 11.3 14.5 0.00 0.00 0.00 56 1020.0
20260902135902 24 317 4.8 6.4 0.00 0.00 0.00 56 1020.3
20260902135402 24 301 11.3 19.3 0.00 0.00 0.00 54 1020.3
20260902134902 24 330 8.0 9.7 0.00 0.00 0.00 57 1020.3
20260902134402 24 303 4.8 8.0 0.00 0.00 0.00 57 1020.3
20260902133902 24 345 9.7 11.3 0.00 0.00 0.00 54 1020.3
20260902133402 24 330 9.7 14.5 0.00 0.00 0.00 53 1020.3
20260902132902 24 354 9.7 12.9 0.00 0.00 0.00 54 1020.3
20260902132402 23 327 4.8 6.4 0.00 0.00 0.00 56 1020.7
20260902131902 23 305 8.0 12.9 0.00 0.00 0.00 55 1020.7
20260902131402 24 343 3.2 4.8 0.00 0.00 0.00 58 1020.7
20260902130902 23 337 6.4 9.7 0.00 0.00 0.00 60 1020.7
20260902130402 22 293 6.4 8.0 0.00 0.00 0.00 61 1020.7
20260902125902 22 348 3.2 4.8 0.00 0.00 0.00 62 1020.7
20260902125402 22 323 6.4 8.0 0.00 0.00 0.00 61 1020.7
20260902124902 22 306 9.7 12.9 0.00 0.00 0.00 60 1020.7
20260902124402 22 337 4.8 8.0 0.00 0.00 0.00 62 1020.7
20260902123902 23 325 6.4 8.0 0.00 0.00 0.00 59 1020.7